AirNav   Air Wisconsin pilot careers
 
 898 users online  

NV61 Gilbert Development Corp Heliport
Las Vegas, Nevada, USA

GOING TO LAS VEGAS?


FAA INFORMATION EFFECTIVE 12 OCTOBER 2017

Location

FAA Identifier: NV61
Lat/Long: 36-13-04.8900N / 115-08-01.0090W
36-13.081500N / 115-08.016817W
36.2180250 / -115.1336136
(estimated)
Elevation: 1981 ft. / 604 m (estimated)
Variation: 14E (1985)
From city: 5 miles W of LAS VEGAS, NV
Time zone: UTC -7 (UTC -8 during Standard Time)
Zip code: 89030

Heliport Operations

Heliport use: Private use. Permission required prior to landing
Activation date: 12/1982
Control tower: no
ARTCC: LOS ANGELES CENTER
FSS: RENO FLIGHT SERVICE STATION
Attendance: UNATNDD
Wind indicator: yes
Segmented circle: no

Heliport Communications

WX ASOS at VGT (3 nm W): 118.05 (702-648-6633)
WX ASOS at LAS (8 nm S): PHONE 702-736-1416
WX AWOS-3PT at HND (15 nm S): 120.775 (702-614-4537)

Nearby radio navigation aids

VOR radial/distance  VOR name  Freq  Var
LASr354/8.4LAS VEGAS VORTAC116.9015E
BLDr301/18.7BOULDER CITY VORTAC116.7015E

Heliport Services

Runway Information

Helipad H1

Dimensions: 60 x 60 ft. / 18 x 18 m
Surface: asphalt
Runway edge lights: FLOODLIGHTS
Latitude: 36-13.081500N
Longitude: 115-08.016817W
Elevation: 1981.0 ft.
Traffic pattern: leftleft

Heliport Ownership and Management from official FAA records

Ownership: Privately-owned
Owner: STEVE GILBERT
PO BOX 665
CEDAR CITY, UT 84720
Phone 435-586-5138
Manager: STEVE GILBERT
PO BOX 665
CEDAR CITY, UT 84720
Phone 435-586-5138

Heliport Operational Statistics

Aircraft based on the field: 1
Helicopters: 1
    

Additional Remarks

A52-H1 6' FENCE 50' NE.

Instrument Procedures

There are no published instrument procedures at NV61.

Some nearby airports with instrument procedures:

KVGT - North Las Vegas Airport (3 nm W)
KLSV - Nellis Air Force Base (5 nm E)
KLAS - Mc Carran International Airport (8 nm S)
KHND - Henderson Executive Airport (15 nm S)
KBVU - Boulder City Municipal Airport (21 nm SE)
 
Loc | Ops | Rwys | IFR | FBO | Links
Com | Nav | Svcs | Stats | Notes


 
Area around NV61 (Gilbert Development Corp Heliport)
 
Road maps at: MapQuest Bing Google
 
Aerial photo
No photo
 
Sectional chart

 
Airport distance calculator
Flying to Gilbert Development Corp Heliport? Find the distance to fly.

From to NV61

Sunrise and sunset
Times for 22-Oct-2017
 Local
(UTC-7)
 Zulu
(UTC)
Morning civil twilight06:2913:29
Sunrise06:5513:55
Sunset17:5500:55
Evening civil twilight18:2101:21

Current date and time
Zulu (UTC)  22-Oct-2017 14:24:01
Local (UTC-7)  22-Oct-2017 07:24:01
 
METAR
KVGT 
3nm W 
221353Z AUTO 00000KT 10SM CLR 13/M06 A3028 RMK AO2 SLP265 T01281056
KLSV 
6nm E 
221354Z 00000KT 7SM CLR 10/M09 A3028 RMK SLP248 T01041088 $
KLAS 
8nm S 
221356Z 20004KT 10SM CLR 13/M08 A3029 RMK AO2 SLP246 T01281078
KHND 
14nm S 
221356Z 18007KT 10SM CLR 10/M08 A3031 RMK AO2 SLP259 T01001083 $
TAF
KVGT 
3nm W 
221120Z 2212/2312 33007KT P6SM FEW250 FM221600 VRB05KT P6SM SKC FM221900 11005KT P6SM SKC FM230200 33008KT P6SM SKC
KLSV 
6nm E 
220702Z 2207/2313 04009KT 9999 SKC QNH3017INS BECMG 2303/2304 35009KT 9999 SKC QNH3019INS TX27/2221Z TN12/2212Z
KLAS 
8nm S 
221120Z 2212/2318 23006KT P6SM SKC FM221400 VRB05KT P6SM SKC FM221900 07006KT P6SM SKC FM230300 25008KT P6SM SKC FM231600 03011KT P6SM SKC
KHND 
14nm S 
221120Z 2212/2312 21005KT P6SM SKC FM221700 03006KT P6SM SKC FM230300 16006KT P6SM SKC
NOTAMs
Click for the latest NOTAMs
NOTAMs are issued by the DoD/FAA and will open in a separate window not controlled by AirNav.

 

 
 

Would you like to see your business listed on this page?

 If your business provides an interesting product or service to pilots, flight crews, aircraft, or users of the Gilbert Development Corp Heliport, you should consider listing it here.  To start the listing process, click on the button below
 
Add a business
 

Other Pages about Gilbert Development Corp Heliport

Update a link
 
Copyright © AirNav, LLC. All rights reserved. Privacy Policy  Contact